Simultaneous Nadir Overpasses (SNOs) Predictions

Prediction of SNOs between GOES-15 and METOP-A Satellite Orbit:

Table of predicted SNOs for the next 14.0 days since TLE Epoch: 5/17/2013
Index Date Time (GOES-15) GOES-15 Lat,Lon METOP-A Lat,Lon Distance(km) Time Diff (sec)
1 05/18/2013 18:31:36 -0.10,-135.42 0.03,-136.01 67.13 80
2 05/21/2013 06:32:37 0.10,-135.37 0.06,-135.60 26.76 80
3 05/23/2013 18:28:08 -0.10,-135.36 -0.16,-135.16 22.71 80
4 05/26/2013 06:26:28 0.10,-135.29 0.20,-134.75 60.46 80
5 05/27/2013 18:47:59 -0.10,-135.28 0.81,-139.31 459.51 80
6 05/28/2013 18:24:40 -0.11,-135.26 -0.31,-134.31 107.25 80
7 05/30/2013 06:46:20 0.11,-135.19 -0.70,-138.91 422.63 80
8 05/31/2013 06:23:01 0.12,-135.17 0.42,-133.91 143.85 80
